Location: *
(37.5724°S, 58.0067°E)
Time: 17:23:21
(UTC+00:00)

NOSS 3-1 (A) - Pass Details

Date: 21 June 2021
Orbit: 729 x 1483 km, 63.4° (Epoch: 23 July)

Event Time Altitude Azimuth Distance (km) Brightness Sun altitude
Rises 15:30:01 0° 206° (SSW) 3,872 6.8 -29.4°
Reaches altitude 10° 15:33:26 10° 193° (SSW) 2,774 5.9 -30.1°
Enters shadow 15:34:46 15° 184° (S) 2,393 5.5 -30.4°
